| time (UTC) | temp F | wind direction | speed MPH | gust MPH | rain 1hr in | rain 24hr in | rain mn in | humidity % | barometer mb |
| 20260507145557 | 49 | 194 | 3.0 | 8.0 | 0.00 | 0.00 | 0.00 | 64 | 1017.0 |
| 20260507144056 | 48 | 204 | 4.0 | 6.0 | 0.00 | 0.00 | 0.00 | 65 | 1017.1 |
| 20260507142555 | 48 | 277 | 1.0 | 1.0 | 0.00 | 0.00 | 0.00 | 65 | 1017.2 |
| 20260507141051 | 49 | 209 | 3.0 | 5.0 | 0.00 | 0.00 | 0.00 | 64 | 1017.3 |
| 20260507135548 | 50 | 185 | 4.0 | 6.0 | 0.00 | 0.00 | 0.00 | 62 | 1017.3 |
| 20260507134043 | 50 | 186 | 4.0 | 5.0 | 0.00 | 0.00 | 0.00 | 62 | 1017.3 |
| 20260507132540 | 50 | 243 | 6.0 | 9.0 | 0.00 | 0.00 | 0.00 | 61 | 1017.3 |
| 20260507131036 | 50 | 196 | 6.0 | 8.0 | 0.00 | 0.00 | 0.00 | 62 | 1017.4 |
| 20260507125535 | 50 | 162 | 6.0 | 8.0 | 0.00 | 0.00 | 0.00 | 61 | 1017.2 |
| 20260507124032 | 50 | 216 | 4.0 | 7.0 | 0.00 | 0.00 | 0.00 | 62 | 1017.2 |
| 20260507122527 | 51 | 186 | 3.0 | 5.0 | 0.00 | 0.00 | 0.00 | 61 | 1017.3 |
| 20260507121027 | 51 | 212 | 6.0 | 8.0 | 0.00 | 0.00 | 0.00 | 59 | 1017.3 |
| 20260507115522 | 51 | 191 | 5.0 | 7.0 | 0.00 | 0.02 | 0.02 | 59 | 1017.3 |
| 20260507114017 | 51 | 183 | 7.0 | 11.0 | 0.00 | 0.02 | 0.02 | 59 | 1017.2 |
| 20260507112515 | 52 | 204 | 6.0 | 8.0 | 0.00 | 0.02 | 0.02 | 57 | 1017.1 |
| 20260507111010 | 52 | 203 | 3.0 | 3.0 | 0.00 | 0.02 | 0.02 | 57 | 1016.7 |
| 20260507105506 | 52 | 211 | 6.0 | 8.0 | 0.00 | 0.02 | 0.02 | 57 | 1016.6 |
| 20260507104001 | 52 | 228 | 8.0 | 11.0 | 0.00 | 0.02 | 0.02 | 57 | 1016.7 |
| 20260507102458 | 52 | 233 | 3.0 | 3.0 | 0.00 | 0.02 | 0.02 | 58 | 1016.6 |
| 20260507100952 | 52 | 248 | 4.0 | 6.0 | 0.00 | 0.02 | 0.02 | 57 | 1016.8 |
| 20260507095451 | 52 | 209 | 5.0 | 9.0 | 0.00 | 0.02 | 0.02 | 57 | 1016.5 |
| 20260507093946 | 52 | 252 | 6.0 | 8.0 | 0.00 | 0.02 | 0.02 | 57 | 1016.7 |
| 20260507092444 | 53 | 202 | 6.0 | 9.0 | 0.00 | 0.02 | 0.02 | 56 | 1016.3 |
| 20260507090939 | 53 | 193 | 5.0 | 7.0 | 0.00 | 0.02 | 0.02 | 57 | 1016.3 |
| 20260507085435 | 53 | 222 | 4.0 | 6.0 | 0.00 | 0.02 | 0.02 | 56 | 1016.1 |
| 20260507083932 | 53 | 184 | 6.0 | 9.0 | 0.00 | 0.02 | 0.02 | 54 | 1015.6 |
| 20260507082432 | 53 | 254 | 5.0 | 8.0 | 0.00 | 0.02 | 0.02 | 54 | 1015.4 |
| 20260507080928 | 54 | 185 | 12.0 | 23.0 | 0.00 | 0.02 | 0.02 | 53 | 1015.1 |
| 20260507075428 | 54 | 185 | 5.0 | 9.0 | 0.00 | 0.02 | 0.02 | 52 | 1014.5 |
| 20260507073925 | 54 | 196 | 5.0 | 8.0 | 0.00 | 0.02 | 0.02 | 53 | 1014.5 |
| 20260507072422 | 55 | 199 | 5.0 | 7.0 | 0.00 | 0.02 | 0.02 | 53 | 1014.3 |
| 20260507070918 | 55 | 226 | 6.0 | 8.0 | 0.00 | 0.02 | 0.02 | 53 | 1013.7 |
| 20260507065415 | 56 | 206 | 6.0 | 10.0 | 0.00 | 0.02 | 0.02 | 53 | 1013.7 |
| 20260507063914 | 57 | 205 | 4.0 | 8.0 | 0.00 | 0.02 | 0.02 | 53 | 1013.6 |
| 20260507062410 | 58 | 196 | 5.0 | 7.0 | 0.00 | 0.02 | 0.02 | 52 | 1013.4 |
| 20260507060910 | 58 | 208 | 4.0 | 6.0 | 0.00 | 0.02 | 0.02 | 51 | 1013.4 |
| 20260507055410 | 59 | 222 | 6.0 | 7.0 | 0.00 | 0.02 | 0.02 | 51 | 1013.6 |
| 20260507053907 | 59 | 221 | 9.0 | 11.0 | 0.00 | 0.02 | 0.02 | 51 | 1013.5 |
| 20260507052406 | 58 | 186 | 7.0 | 9.0 | 0.05 | 0.02 | 0.02 | 53 | 1013.3 |
| 20260507050903 | 59 | 223 | 3.0 | 3.0 | 0.00 | 0.01 | 0.01 | 55 | 1013.1 |
| 20260507045358 | 53 | 199 | 3.0 | 5.0 | 0.07 | 0.01 | 0.01 | 67 | 1012.9 |
| 20260507043854 | 57 | 227 | 3.0 | 5.0 | 0.00 | 0.00 | 0.00 | 57 | 1012.8 |
| 20260507042349 | 62 | 251 | 2.0 | 2.0 | 0.00 | 0.00 | 0.00 | 43 | 1012.3 |
| 20260507040846 | 63 | 257 | 8.0 | 13.0 | 0.00 | 0.00 | 0.00 | 42 | 1012.3 |
| 20260507035345 | 62 | 208 | 8.0 | 15.0 | 0.00 | 0.00 | 0.00 | 40 | 1012.4 |
| 20260507033842 | 64 | 187 | 10.0 | 13.0 | 0.00 | 0.00 | 0.00 | 41 | 1012.6 |
| 20260507032339 | 63 | 230 | 4.0 | 6.0 | 0.00 | 0.00 | 0.00 | 41 | 1012.1 |
| 20260507030834 | 64 | 194 | 4.0 | 5.0 | 0.00 | 0.00 | 0.00 | 40 | 1012.2 |
| 20260507025331 | 62 | 201 | 9.0 | 15.0 | 0.00 | 0.00 | 0.00 | 42 | 1012.6 |
| 20260507023828 | 61 | 178 | 4.0 | 8.0 | 0.00 | 0.00 | 0.00 | 43 | 1012.2 |
| 20260507022324 | 62 | 197 | 4.0 | 7.0 | 0.00 | 0.00 | 0.00 | 43 | 1012.3 |
| 20260507020819 | 62 | 347 | 4.0 | 8.0 | 0.00 | 0.00 | 0.00 | 43 | 1012.5 |
| 20260507015316 | 62 | 261 | 5.0 | 10.0 | 0.00 | 0.00 | 0.00 | 42 | 1012.5 |
| 20260507013812 | 59 | 235 | 5.0 | 7.0 | 0.00 | 0.00 | 0.00 | 45 | 1012.8 |
| 20260507012308 | 60 | 193 | 7.0 | 8.0 | 0.00 | 0.00 | 0.00 | 44 | 1012.8 |
| 20260507010807 | 60 | 180 | 7.0 | 10.0 | 0.00 | 0.00 | 0.00 | 42 | 1012.9 |
| 20260507005305 | 64 | 251 | 5.0 | 8.0 | 0.00 | 0.00 | 0.00 | 41 | 1012.8 |
| 20260507003800 | 62 | 252 | 3.0 | 3.0 | 0.00 | 0.00 | 0.00 | 41 | 1012.6 |
| 20260507002259 | 62 | 194 | 6.0 | 8.0 | 0.00 | 0.00 | 0.00 | 37 | 1012.0 |
| 20260507000756 | 63 | 270 | 2.0 | 2.0 | 0.00 | 0.00 | 0.00 | 39 | 1012.3 |
| 20260506235256 | 62 | 210 | 5.0 | 7.0 | 0.00 | 0.00 | 0.00 | 40 | 1012.4 |
| 20260506233754 | 62 | 172 | 7.0 | 13.0 | 0.00 | 0.00 | 0.00 | 43 | 1012.4 |
| 20260506232253 | 60 | 199 | 6.0 | 9.0 | 0.00 | 0.00 | 0.00 | 51 | 1012.6 |
| 20260506230751 | 59 | 191 | 5.0 | 7.0 | 0.00 | 0.00 | 0.00 | 58 | 1012.7 |
| 20260506225248 | 60 | 192 | 5.0 | 6.0 | 0.00 | 0.00 | 0.00 | 68 | 1012.5 |
| 20260506223743 | 62 | 205 | 7.0 | 9.0 | 0.00 | 0.00 | 0.00 | 63 | 1012.1 |
| 20260506222238 | 61 | 245 | 4.0 | 7.0 | 0.00 | 0.00 | 0.00 | 63 | 1011.7 |
| 20260506220737 | 61 | 219 | 6.0 | 10.0 | 0.00 | 0.00 | 0.00 | 64 | 1011.4 |
| 20260506215236 | 60 | 238 | 4.0 | 5.0 | 0.00 | 0.00 | 0.00 | 65 | 1011.5 |
| 20260506213734 | 60 | 236 | 9.0 | 11.0 | 0.00 | 0.00 | 0.00 | 65 | 1011.5 |
| 20260506212230 | 59 | 236 | 6.0 | 9.0 | 0.00 | 0.00 | 0.00 | 67 | 1011.1 |
| 20260506210725 | 58 | 190 | 6.0 | 10.0 | 0.00 | 0.00 | 0.00 | 68 | 1010.7 |
| 20260506205220 | 57 | 235 | 8.0 | 15.0 | 0.00 | 0.00 | 0.00 | 69 | 1011.0 |
| 20260506203718 | 56 | 209 | 2.0 | 2.0 | 0.00 | 0.00 | 0.00 | 68 | 1010.8 |
| 20260506202214 | 57 | 244 | 3.0 | 5.0 | 0.00 | 0.00 | 0.00 | 68 | 1010.9 |
| 20260506200711 | 57 | 194 | 3.0 | 6.0 | 0.00 | 0.00 | 0.00 | 67 | 1010.9 |
| 20260506195207 | 57 | 210 | 5.0 | 8.0 | 0.00 | 0.00 | 0.00 | 66 | 1010.7 |
| 20260506193704 | 57 | 261 | 2.0 | 2.0 | 0.00 | 0.00 | 0.00 | 65 | 1010.8 |
| 20260506192200 | 57 | 232 | 2.0 | 3.0 | 0.00 | 0.00 | 0.00 | 65 | 1010.7 |
| 20260506190656 | 57 | 293 | 0.0 | 1.0 | 0.00 | 0.00 | 0.00 | 66 | 1010.6 |
| 20260506185152 | 57 | 296 | 1.0 | 2.0 | 0.00 | 0.00 | 0.00 | 64 | 1010.7 |
| 20260506183649 | 57 | 198 | 5.0 | 7.0 | 0.00 | 0.00 | 0.00 | 64 | 1010.5 |
| 20260506182145 | 57 | 228 | 6.0 | 9.0 | 0.00 | 0.00 | 0.00 | 64 | 1010.7 |
| 20260506180643 | 57 | 273 | 6.0 | 8.0 | 0.00 | 0.00 | 0.00 | 64 | 1010.7 |
| 20260506175138 | 57 | 256 | 4.0 | 8.0 | 0.00 | 0.00 | 0.00 | 64 | 1010.9 |
| 20260506173637 | 57 | 207 | 6.0 | 10.0 | 0.00 | 0.00 | 0.00 | 65 | 1010.8 |
| 20260506172133 | 57 | 169 | 8.0 | 13.0 | 0.00 | 0.00 | 0.00 | 64 | 1011.0 |
| 20260506170631 | 56 | 255 | 5.0 | 6.0 | 0.00 | 0.00 | 0.00 | 65 | 1011.0 |
| 20260506165127 | 56 | 300 | 4.0 | 6.0 | 0.00 | 0.00 | 0.00 | 65 | 1011.3 |
| 20260506163623 | 57 | 282 | 0.0 | 1.0 | 0.00 | 0.00 | 0.00 | 65 | 1011.4 |
| 20260506162122 | 56 | 248 | 3.0 | 6.0 | 0.00 | 0.00 | 0.00 | 69 | 1011.7 |
| 20260506160619 | 57 | 287 | 5.0 | 9.0 | 0.00 | 0.00 | 0.00 | 69 | 1011.8 |
| 20260506155116 | 57 | 199 | 3.0 | 5.0 | 0.00 | 0.00 | 0.00 | 71 | 1012.0 |
| 20260506152317 | 56 | 221 | 4.0 | 6.0 | 0.00 | 0.00 | 0.00 | 73 | 1012.0 |
| 20260506150815 | 57 | 299 | 3.0 | 5.0 | 0.00 | 0.00 | 0.00 | 72 | 1012.0 |